When you browse on this site, cookies collect data to enhance your experience and personalize the content and advertising you see.
Visit our Privacy Policy to learn more. By continuing to use the site, you agree to this use of cookies and data.
  • En España
  • Lista de países
  • Para 7 días
  • Temperatura del agua
  • Mapa Satelital
  • El tiempo en el mapa
  • Informadores
  • user-avatar
    Iniciar sesión

    Tiempo cada hora Kamarang

    Hoy, 19 Diciembre, Miércoles

    Tiempo Temperatura Precipitaciones Viento Presión Humedad
    00:00 +20°C° 0 mm 0 mps 714 mmHg 99%
    01:00 +20°C° 0 mm 0 mps 714 mmHg 99%
    02:00 +20°C° 0 mm 0 mps 714 mmHg 99%
    03:00 +20°C° 0 mm 0 mps 714 mmHg 99%
    04:00 +19°C° 0 mm 0 mps 714 mmHg 98%
    05:00 +19°C° 0 mm 0 mps 714 mmHg 98%
    06:00 +20°C° 0 mm 0 mps 714 mmHg 95%
    07:00 +21°C° 0 mm 0 mps 714 mmHg 92%
    08:00 +22°C° 0 mm 0 mps 715 mmHg 88%
    09:00 +25°C° 0.1 mm 1 mps 715 mmHg 81%
    10:00 +27°C° 0.1 mm 1 mps 715 mmHg 74%
    11:00 +28°C° 0.1 mm 1 mps 715 mmHg 67%
    12:00 +29°C° 0.4 mm 1 mps 714 mmHg 67%
    13:00 +29°C° 0.4 mm 2 mps 713 mmHg 66%
    14:00 +30°C° 0.4 mm 2 mps 712 mmHg 66%
    15:00 +29°C° 0.6 mm 2 mps 712 mmHg 73%
    16:00 +27°C° 0.6 mm 2 mps 712 mmHg 80%
    17:00 +26°C° 0.6 mm 2 mps 711 mmHg 87%
    18:00 +25°C° 0.3 mm 1 mps 712 mmHg 91%
    19:00 +24°C° 0.3 mm 1 mps 712 mmHg 95%
    20:00 +23°C° 0.3 mm 1 mps 713 mmHg 99%
    21:00 +23°C° 0.3 mm 1 mps 713 mmHg 99%
    22:00 +23°C° 0.3 mm 1 mps 713 mmHg 99%
    23:00 +23°C° 0.3 mm 1 mps 714 mmHg 99%

    Mañana, 20 Diciembre, Jueves

    Tiempo Temperatura Precipitaciones Viento Presión Humedad
    00:00 +22°C° 0.3 mm 1 mps 713 mmHg 99%
    01:00 +22°C° 0.3 mm 1 mps 713 mmHg 99%
    02:00 +22°C° 0.3 mm 1 mps 713 mmHg 99%
    03:00 +22°C° 0.1 mm 1 mps 713 mmHg 99%
    04:00 +22°C° 0.1 mm 1 mps 713 mmHg 99%
    05:00 +22°C° 0.1 mm 1 mps 712 mmHg 99%
    06:00 +22°C° 0 mm 1 mps 713 mmHg 96%
    07:00 +23°C° 0 mm 1 mps 714 mmHg 94%
    08:00 +23°C° 0 mm 1 mps 714 mmHg 92%
    09:00 +25°C° 0.1 mm 1 mps 714 mmHg 82%
    10:00 +27°C° 0.1 mm 1 mps 715 mmHg 71%
    11:00 +29°C° 0.1 mm 2 mps 715 mmHg 61%
    12:00 +30°C° 0.1 mm 2 mps 714 mmHg 58%
    13:00 +30°C° 0.1 mm 2 mps 713 mmHg 55%
    14:00 +31°C° 0.1 mm 2 mps 712 mmHg 52%
    15:00 +30°C° 0.6 mm 2 mps 712 mmHg 60%
    16:00 +28°C° 0.6 mm 2 mps 711 mmHg 69%
    17:00 +27°C° 0.6 mm 2 mps 711 mmHg 78%
    18:00 +25°C° 0.3 mm 1 mps 711 mmHg 84%
    19:00 +24°C° 0.3 mm 1 mps 712 mmHg 91%
    20:00 +22°C° 0.3 mm 1 mps 712 mmHg 97%
    21:00 +22°C° 0.1 mm 1 mps 713 mmHg 97%
    22:00 +22°C° 0.1 mm 1 mps 713 mmHg 98%
    23:00 +22°C° 0.1 mm 1 mps 713 mmHg 98%

    Pasado mañana, 21 Diciembre, Viernes

    Tiempo Temperatura Precipitaciones Viento Presión Humedad
    00:00 +22°C° 0.1 mm 1 mps 713 mmHg 98%
    01:00 +22°C° 0.1 mm 1 mps 712 mmHg 98%
    02:00 +19°C° 0.1 mm 0 mps 712 mmHg 99%
    03:00 +19°C° 0.1 mm 0 mps 712 mmHg 99%
    04:00 +19°C° 0.1 mm 0 mps 712 mmHg 99%
    05:00 +19°C° 0.1 mm 0 mps 712 mmHg 99%
    06:00 +20°C° 0 mm 0 mps 713 mmHg 96%
    07:00 +22°C° 0 mm 1 mps 713 mmHg 93%
    08:00 +23°C° 0 mm 1 mps 714 mmHg 91%
    09:00 +25°C° 0.1 mm 1 mps 714 mmHg 83%
    10:00 +26°C° 0.1 mm 1 mps 714 mmHg 75%
    11:00 +28°C° 0.1 mm 1 mps 714 mmHg 68%
    12:00 +28°C° 0.1 mm 2 mps 713 mmHg 64%
    13:00 +29°C° 0.1 mm 2 mps 713 mmHg 60%
    14:00 +30°C° 0.1 mm 2 mps 712 mmHg 56%
    15:00 +29°C° 0.2 mm 2 mps 711 mmHg 61%
    16:00 +28°C° 0.2 mm 2 mps 711 mmHg 66%
    17:00 +27°C° 0.2 mm 2 mps 711 mmHg 70%
    18:00 +25°C° 0.1 mm 1 mps 711 mmHg 79%
    19:00 +24°C° 0.1 mm 1 mps 712 mmHg 87%
    20:00 +22°C° 0.1 mm 1 mps 713 mmHg 96%
    21:00 +22°C° 0.1 mm 1 mps 713 mmHg 96%
    22:00 +22°C° 0.1 mm 1 mps 713 mmHg 97%
    23:00 +21°C° 0.1 mm 1 mps 713 mmHg 98%

    22 Diciembre, Sábado

    Tiempo Temperatura Precipitaciones Viento Presión Humedad
    00:00 +21°C° 0.1 mm 1 mps 713 mmHg 98%
    01:00 +21°C° 0.1 mm 1 mps 712 mmHg 98%
    02:00 +21°C° 0.1 mm 1 mps 712 mmHg 98%
    03:00 +19°C° 0 mm 0 mps 712 mmHg 98%
    04:00 +19°C° 0 mm 0 mps 712 mmHg 98%
    05:00 +19°C° 0 mm 0 mps 712 mmHg 98%
    06:00 +19°C° 0 mm 0 mps 713 mmHg 95%
    07:00 +22°C° 0 mm 1 mps 714 mmHg 91%
    08:00 +23°C° 0 mm 1 mps 714 mmHg 88%
    09:00 +24°C° 0.1 mm 1 mps 714 mmHg 79%
    10:00 +26°C° 0.1 mm 1 mps 714 mmHg 71%
    11:00 +27°C° 0.1 mm 1 mps 714 mmHg 62%
    12:00 +28°C° 0 mm 1 mps 713 mmHg 59%
    13:00 +29°C° 0 mm 2 mps 713 mmHg 56%
    14:00 +30°C° 0 mm 2 mps 712 mmHg 53%
    15:00 +29°C° 0 mm 2 mps 711 mmHg 57%
    16:00 +28°C° 0 mm 2 mps 711 mmHg 61%
    17:00 +28°C° 0 mm 1 mps 711 mmHg 65%
    18:00 +26°C° 0 mm 1 mps 711 mmHg 74%
    19:00 +24°C° 0 mm 1 mps 712 mmHg 83%
    20:00 +20°C° 0 mm 0 mps 712 mmHg 91%
    21:00 +22°C° 0.1 mm 1 mps 713 mmHg 93%
    22:00 +21°C° 0.1 mm 1 mps 713 mmHg 95%
    23:00 +21°C° 0.1 mm 1 mps 713 mmHg 97%

    23 Diciembre, Domingo

    Tiempo Temperatura Precipitaciones Viento Presión Humedad
    00:00 +21°C° 0.1 mm 1 mps 713 mmHg 98%
    01:00 +21°C° 0.1 mm 1 mps 713 mmHg 98%
    02:00 +21°C° 0.1 mm 1 mps 712 mmHg 98%
    03:00 +19°C° 0 mm 0 mps 712 mmHg 98%
    04:00 +19°C° 0 mm 0 mps 712 mmHg 98%
    05:00 +19°C° 0 mm 0 mps 712 mmHg 99%
    06:00 +19°C° 0 mm 0 mps 713 mmHg 95%
    07:00 +20°C° 0 mm 0 mps 713 mmHg 92%
    08:00 +21°C° 0 mm 0 mps 714 mmHg 89%
    09:00 +24°C° 0 mm 1 mps 714 mmHg 82%
    10:00 +26°C° 0 mm 1 mps 714 mmHg 75%
    11:00 +27°C° 0 mm 1 mps 714 mmHg 67%
    12:00 +28°C° 0 mm 1 mps 713 mmHg 63%
    13:00 +29°C° 0 mm 1 mps 712 mmHg 59%
    14:00 +30°C° 0 mm 1 mps 711 mmHg 55%
    15:00 +29°C° 0 mm 1 mps 711 mmHg 58%
    16:00 +29°C° 0 mm 1 mps 711 mmHg 62%
    17:00 +28°C° 0 mm 1 mps 711 mmHg 66%
    18:00 +26°C° 0.3 mm 1 mps 711 mmHg 76%
    19:00 +24°C° 0.3 mm 1 mps 712 mmHg 86%
    20:00 +22°C° 0.3 mm 1 mps 712 mmHg 97%
    21:00 +22°C° 0.3 mm 1 mps 712 mmHg 97%
    22:00 +22°C° 0.3 mm 1 mps 713 mmHg 98%
    23:00 +22°C° 0.3 mm 1 mps 713 mmHg 98%

    24 Diciembre, Lunes

    Tiempo Temperatura Precipitaciones Viento Presión Humedad
    00:00 +20°C° 0 mm 0 mps 712 mmHg 98%
    01:00 +19°C° 0 mm 0 mps 712 mmHg 99%
    02:00 +19°C° 0 mm 0 mps 712 mmHg 99%
    03:00 +19°C° 0 mm 0 mps 712 mmHg 99%
    04:00 +19°C° 0 mm 0 mps 712 mmHg 99%
    05:00 +19°C° 0 mm 0 mps 712 mmHg 98%
    06:00 +20°C° 0 mm 0 mps 712 mmHg 96%
    07:00 +20°C° 0 mm 0 mps 713 mmHg 94%
    08:00 +21°C° 0 mm 0 mps 713 mmHg 92%
    09:00 +24°C° 0.1 mm 1 mps 713 mmHg 85%
    10:00 +26°C° 0.1 mm 1 mps 713 mmHg 78%
    11:00 +28°C° 0.1 mm 1 mps 713 mmHg 71%
    12:00 +28°C° 0.3 mm 1 mps 712 mmHg 68%
    13:00 +29°C° 0.3 mm 1 mps 712 mmHg 64%
    14:00 +30°C° 0.3 mm 1 mps 711 mmHg 61%
    15:00 +29°C° 0.6 mm 2 mps 711 mmHg 67%
    16:00 +28°C° 0.6 mm 2 mps 710 mmHg 72%
    17:00 +27°C° 0.6 mm 2 mps 710 mmHg 78%
    18:00 +25°C° 0.3 mm 1 mps 710 mmHg 85%
    19:00 +24°C° 0.3 mm 1 mps 711 mmHg 91%
    20:00 +22°C° 0.3 mm 1 mps 711 mmHg 98%
    21:00 +22°C° 0.1 mm 1 mps 712 mmHg 98%
    22:00 +22°C° 0.1 mm 1 mps 712 mmHg 98%
    23:00 +22°C° 0.1 mm 1 mps 712 mmHg 99%
    Mostrar más